Regional Weather Roundup
Issued by NWS

Home | Current Version | Previous Version | Graphics & Text | Print | Product List | Glossary On
Versions: 1 2 3 4 5 6 7 8 9 10 11 12 13 14 15 16 17 18 19 20 21 22 23 24 25 26 27 28 29 30 31 32 33 34 35 36 37 38 39 40 41 42 43 44 45 46 47 48 49 50
000
ASUS43 KLOT 071600
RWRIL

ILLINOIS REGIONAL WEATHER ROUNDUP
NATIONAL WEATHER SERVICE CHICAGO/ROMEOVILLE IL
1100 AM CDT TUE JUL 07 2015

NOTE: "FAIR" INDICATES FEW OR NO CLOUDS BELOW 12,000 FEET WITH NO
SIGNIFICANT WEATHER AND/OR OBSTRUCTIONS TO VISIBILITY.

* THESE STATIONS ARE NOT UNDER NWS QUALITY CONTROL. THEY ALSO MAY NOT
  REPORT WEATHER SUCH AS PRECIPITATION OR FOG.

ILZ001-002-007-009-015-016-024-071700-
NORTHWEST ILLINOIS

CITY           SKY/WX    TMP DP  RH WIND       PRES   REMARKS
MOLINE         MOSUNNY   69  57  65 NE12      30.02S HAZE
STERLING*        N/A     70  61  73 N10G16    30.01S
$$

ILZ003-004-008-010-011-017-018-071700-
NORTH CENTRAL ILLINOIS

CITY           SKY/WX    TMP DP  RH WIND       PRES   REMARKS
ROCKFORD       PTSUNNY   66  56  70 NE8       30.03R
$$

ILZ005-006-012>014-019>023-071700-
NORTHEAST ILLINOIS

CITY           SKY/WX    TMP DP  RH WIND       PRES   REMARKS
CHICAGO-OHARE  CLOUDY    64  49  57 NE20G29   30.00R
CHICAGO-MIDWAY CLOUDY    66  51  58 N20G26    29.99S
AURORA         CLOUDY    66  54  65 NE16      30.00S
LANSING*       CLOUDY    60  52  74 N14G25    29.99R
WAUKEGAN       MOSUNNY   64  48  56 N14G22    30.00R
DUPAGE AIRPORT CLOUDY    65  52  62 N18       29.99S
WHEELING       CLOUDY    64  49  57 NE13      30.01S
NORTHERLY ISL    N/A     60  51  72 N20         N/A
$$

LMZ740>746-071700-
SOUTHERN LAKE MICHIGAN

STATION/POSITION SKY/WX   TEMP    WIND        PRES    VSBY  WAVE
                          AIR SEA DIR/SP/G                  HT/PER
                          (F)     (DEG/KT/KT) (MB)    (MI)  (FT/S)
HARRISON CRIB              57     360/ 22/ 26   N/A
BURNHAM HARBOR             59     340/ 14/ 20   N/A
CALUMET HARBOR             59     350/ 14/ 19   N/A
BURNS HARBOR               59     360/ 17/ 20 1015.2S
MICHIGAN CITY              60     350/ 25/ 29   N/A
MICHIGAN CITY 6N           59 65  360/ 16/ 19   N/A           7/ 6
ST. JOSEPH                 60 64   40/ 19/ 21   N/A           7/ 2
$$

ILZ025>027-034>036-040-047-049-050-058-095>099-071700-
WEST-CENTRAL ILLINOIS

CITY           SKY/WX    TMP DP  RH WIND       PRES   REMARKS
QUINCY         CLOUDY    65  60  84 N14       30.01R HAZE
MACOMB*        CLOUDY    65  60  84 N13G20    30.03R HAZE
$$

ILZ028>032-037-038-041>044-048-051>054-059>061-071700-
CENTRAL ILLINOIS

CITY           SKY/WX    TMP DP  RH WIND       PRES   REMARKS
BLOOMINGTON    LGT RAIN  63  63 100 NE18      29.98R FOG
DECATUR        CLOUDY    70  67  90 N13       29.93R
PEORIA         CLOUDY    67  60  78 NE10      29.99R
SPRINGFIELD    CLOUDY    67  64  90 N10       29.96R FOG
TAYLORVILLE    NOT AVBL
$$

ILZ033-039-045-046-055>057-062-063-071700-
EAST-CENTRAL ILLINOIS

CITY           SKY/WX    TMP DP  RH WIND       PRES   REMARKS
CHAMPAIGN      RAIN      68  67  96 N12G18    29.92S FOG
MATTOON        LGT RAIN  74  74 100 W5        29.90S FOG
$$

ILZ079-100>102-071700-
SOUTHWEST ILLINOIS

CITY           SKY/WX    TMP DP  RH WIND       PRES   REMARKS
ALTON          CLOUDY    70 N/A N/A NW12      29.96R FOG
BELLEVILLE     CLOUDY    76  76  99 W10       29.93S
CAHOKIA*       CLOUDY    77  71  82 W5        29.94S
SPARTA*        CLOUDY    75  72  91 S7        29.96F
$$

ILZ064>066-069>071-074>076-080>082-084>086-088>090-092>094-071700-
SOUTH-CENTRAL ILLINOIS

CITY           SKY/WX    TMP DP  RH WIND       PRES   REMARKS
CARBONDALE     RAIN      73  71  93 SW7       29.97F VSB 3/4
MARION         LGT RAIN  73  73 100 SW8       29.99S
MT. VERNON     CLOUDY    81  72  74 SW13      29.95S HX  84
SALEM*         LGT RAIN  79  72  79 SW14      29.93S HX  82
$$

ILZ067-068-072-073-078-083-087-091-071700-
SOUTHEAST ILLINOIS

CITY           SKY/WX    TMP DP  RH WIND       PRES   REMARKS
LAWRENCEVILLE  CLOUDY    81  74  79 SW15      29.93S HX  86
HARRISBURG*    LGT RAIN  74  74 100 S8        29.99S
$$

ABBREVIATIONS USED IN REMARKS
   TC - TEMPERATURE IN CELSIUS
  WCI - WIND CHILL INDEX
   HX - HEAT INDEX
  VSB - VISIBILITY
$$




USA.gov is the U.S. government's official web portal to all federal, state and local government web resources and services.